Change the Weather History Date:

Tuesday, October 8, 2013

  Actual Average Record
Temperature  
Mean Temperature 40 °F -  
Max Temperature 78 °F 64 °F 84 °F (1997)
Min Temperature 39 °F 41 °F 30 °F (2012)
Degree Days  
Heating Degree Days 24    
Moisture  
Dew Point 39 °F    
Average Humidity 82    
Maximum Humidity 93    
Minimum Humidity 30    
Precipitation  
Precipitation 0.00 in - - ()
Sea Level Pressure  
Sea Level Pressure 30.13 in    
Wind  
Wind Speed 2 mph (South)    
Max Wind Speed 9 mph    
Max Gust Speed -    
Visibility 10 miles    
Events      
Averages and records for this station are not official NWS values.
T = Trace of Precipitation, MM = Missing Value Source: NWS Daily Summary

Daily Weather History Graph

Daily Weather History Graph

Search for Another Location

Airport or City:

Trip Planner

Search our weather history database for the weather conditions in past years. The results will help you decide how hot, cold, wet, or windy it might be!

Date:

Astronomy

Oct. 08, 2013 Rise Set
Actual Time 7:03 AM CDT 6:28 PM CDT
Civil Twilight 6:35 AM CDT 6:55 PM CDT
Nautical Twilight 6:03 AM CDT 7:28 PM CDT
Astronomical Twilight 5:31 AM CDT 8:00 PM CDT
Moon 11:00 AM CDT (10/8) 9:01 PM CDT (10/8)
Length of Visible Light 12h 20m
Length of Day
11h 24m
Waxing Crescent, 16% of the Moon is Illuminated
Oct 8
Waxing Crescent
Oct 11
First Quarter
Oct 18
Full
Oct 26
Last Quarter
Nov 3
New

Hourly Weather History & Observations

Time (CDT) Temp. Windchill Dew Point Humidity Pressure Visibility Wind Dir Wind Speed Gust Speed Precip Events Conditions
12:15 AM - - - N/A% 30.09 in 10.0 mi Calm Calm - N/A   Unknown
12:35 AM - - - N/A% 30.09 in 10.0 mi Calm Calm - N/A   Unknown
12:55 AM - - - N/A% 30.09 in 10.0 mi Calm Calm - N/A   Unknown
1:15 AM - - - N/A% 30.09 in 10.0 mi Calm Calm - N/A   Unknown
1:35 AM - - - N/A% 30.10 in 10.0 mi Calm Calm - N/A   Unknown
1:55 AM - - - N/A% 30.10 in 10.0 mi Calm Calm - N/A   Unknown
2:15 AM - - - N/A% 30.10 in 10.0 mi Calm Calm - N/A   Unknown
2:35 AM - - - N/A% 30.11 in 10.0 mi Calm Calm - N/A   Unknown
2:55 AM - - - N/A% 30.10 in 10.0 mi Calm Calm - N/A   Unknown
3:15 AM 42.8 °F - 39.2 °F 87% 30.11 in 10.0 mi Calm Calm - N/A   Unknown
3:35 AM 42.8 °F - 39.2 °F 87% 30.11 in 10.0 mi Calm Calm - N/A   Unknown
3:55 AM - - - N/A% 30.11 in 10.0 mi Calm Calm - N/A   Unknown
4:15 AM - - - N/A% 30.11 in 10.0 mi Calm Calm - N/A   Unknown
4:35 AM 42.8 °F - 39.2 °F 87% 30.12 in 10.0 mi Calm Calm - N/A   Unknown
4:55 AM 41.0 °F - 37.4 °F 87% 30.13 in 10.0 mi Calm Calm - N/A   Unknown
5:15 AM 42.8 °F - 39.2 °F 87% 30.13 in 10.0 mi Calm Calm - N/A   Unknown
5:35 AM 42.8 °F - 39.2 °F 87% 30.14 in 10.0 mi Calm Calm - N/A   Unknown
5:55 AM 41.0 °F - 37.4 °F 87% 30.14 in 10.0 mi Calm Calm - N/A   Unknown
6:15 AM 41.0 °F - 37.4 °F 87% 30.15 in 10.0 mi Calm Calm - N/A   Unknown
6:35 AM - - - N/A% 30.14 in 10.0 mi East 3.5 mph - N/A   Unknown
6:55 AM - - - N/A% 30.15 in 10.0 mi Calm Calm - N/A   Unknown
7:15 AM 39.2 °F 37.0 °F 37.4 °F 93% 30.16 in 10.0 mi East 3.5 mph - N/A   Unknown
7:35 AM 42.8 °F - 37.4 °F 81% 30.16 in 10.0 mi Calm Calm - N/A   Unknown
7:55 AM - - - N/A% 30.16 in 10.0 mi Calm Calm - N/A   Unknown
8:15 AM - - - N/A% 30.16 in 10.0 mi Calm Calm - N/A   Unknown
8:35 AM - - - N/A% 30.16 in 10.0 mi SW 3.5 mph - N/A   Unknown
8:55 AM - - - N/A% 30.17 in 10.0 mi Calm Calm - N/A   Unknown
9:15 AM - - - N/A% 30.17 in 10.0 mi Calm Calm - N/A   Unknown
9:35 AM - - - N/A% 30.18 in 10.0 mi Calm Calm - N/A   Unknown
9:55 AM - - - N/A% 30.18 in 10.0 mi Calm Calm - N/A   Unknown
10:15 AM - - - N/A% 30.18 in 10.0 mi Calm Calm - N/A   Unknown
10:35 AM - - - N/A% 30.18 in 10.0 mi WSW 3.5 mph - N/A   Unknown
10:55 AM - - - N/A% 30.17 in 10.0 mi WSW 4.6 mph - N/A   Unknown
11:15 AM - - - N/A% 30.17 in 10.0 mi WSW 3.5 mph - N/A   Unknown
11:35 AM - - - N/A% 30.16 in 10.0 mi Calm Calm - N/A   Unknown
11:55 AM - - - N/A% 30.16 in 10.0 mi SW 3.5 mph - N/A   Unknown
12:15 PM - - - N/A% 30.16 in 10.0 mi South 6.9 mph - N/A   Unknown
12:35 PM - - - N/A% 30.15 in 10.0 mi South 5.8 mph - N/A   Unknown
12:55 PM - - - N/A% 30.14 in 10.0 mi South 6.9 mph - N/A   Unknown
1:15 PM - - - N/A% 30.13 in 10.0 mi South 4.6 mph - N/A   Unknown
1:35 PM - - - N/A% 30.12 in 10.0 mi SSW 4.6 mph - N/A   Unknown
1:55 PM - - - N/A% 30.11 in 10.0 mi SSW 5.8 mph - N/A   Unknown
2:15 PM - - - N/A% 30.11 in 10.0 mi South 9.2 mph - N/A   Unknown
2:35 PM - - - N/A% 30.11 in 10.0 mi SW 5.8 mph - N/A   Unknown
2:55 PM 78.8 °F - 44.6 °F 30% 30.11 in 10.0 mi South 9.2 mph - N/A   Unknown
3:15 PM - - - N/A% 30.10 in 10.0 mi SSW 4.6 mph - N/A   Unknown
3:35 PM - - - N/A% 30.09 in 10.0 mi South 5.8 mph - N/A   Unknown
3:55 PM - - - N/A% 30.10 in 10.0 mi SSW 4.6 mph - N/A   Unknown
4:15 PM - - - N/A% 30.09 in 10.0 mi South 6.9 mph - N/A   Unknown
4:35 PM - - - N/A% 30.10 in 10.0 mi South 6.9 mph - N/A   Unknown
4:55 PM - - - N/A% 30.10 in 10.0 mi South 5.8 mph - N/A   Unknown
5:15 PM - - - N/A% 30.10 in 10.0 mi South 5.8 mph - N/A   Unknown
5:35 PM - - - N/A% 30.10 in 10.0 mi South 6.9 mph - N/A   Unknown
5:55 PM - - - N/A% 30.10 in 10.0 mi South 4.6 mph - N/A   Unknown
6:15 PM - - - N/A% 30.11 in 10.0 mi South 3.5 mph - N/A   Unknown
6:35 PM - - - N/A% 30.11 in 10.0 mi Calm Calm - N/A   Unknown
6:55 PM - - - N/A% 30.11 in 10.0 mi South 3.5 mph - N/A   Unknown
7:15 PM - - - N/A% 30.11 in 10.0 mi South 3.5 mph - N/A   Unknown
7:35 PM - - - N/A% 30.12 in 10.0 mi SSE 4.6 mph - N/A   Unknown
7:55 PM - - - N/A% 30.12 in 10.0 mi SSE 4.6 mph - N/A   Unknown
8:15 PM - - - N/A% 30.12 in 10.0 mi SSE 5.8 mph - N/A   Unknown
8:35 PM - - - N/A% 30.12 in 10.0 mi SSE 4.6 mph - N/A   Unknown
8:55 PM - - - N/A% 30.12 in 10.0 mi SSE 5.8 mph - N/A   Unknown
9:15 PM - - - N/A% 30.12 in 10.0 mi SSE 5.8 mph - N/A   Unknown
9:35 PM - - - N/A% 30.12 in 10.0 mi SSE 3.5 mph - N/A   Unknown
9:55 PM - - - N/A% 30.13 in 10.0 mi SSE 4.6 mph - N/A   Unknown
10:15 PM - - - N/A% 30.13 in 10.0 mi SSE 3.5 mph - N/A   Unknown
10:35 PM - - - N/A% 30.13 in 10.0 mi SSE 4.6 mph - N/A   Unknown
10:55 PM - - - N/A% 30.14 in 10.0 mi SSE 4.6 mph - N/A   Unknown
11:15 PM - - - N/A% 30.14 in 10.0 mi SE 5.8 mph - N/A   Unknown
11:35 PM - - - N/A% 30.14 in 10.0 mi SE 4.6 mph - N/A   Unknown
11:55 PM - - - N/A% 30.14 in 10.0 mi SSE 4.6 mph - N/A   Unknown